Lapse_Rate
5.6 5.6 5.7 5.7 5.8 5.8 5.9 5.9 5.9 6.1 6.0 6.1 6.2 6.1 6.1 6.2 6.1 6.0 5.5 5.5 5.8 5.9 5.9 5.9 6.1 6.2 6.4 6.4 6.0 5.8 5.7 5.8 6.2 6.3 6.8 6.8 6.6 6.4 5.9 5.8 5.6 5.8 6.3 6.2 6.2
5.2 5.3 5.4 5.5 5.6 5.7 5.8 6.0 6.0 6.0 6.1 6.1 6.1 6.3 6.2 6.2 6.2 6.0 6.0 6.0 5.8 5.9 6.2 6.4 6.5 6.5 6.5 6.5 6.2 5.7 5.7 6.1 6.1 6.4 6.7 6.6 6.6 6.2 5.9 5.9 6.1 6.3 6.4 6.3 6.0
5.0 5.0 5.0 5.1 5.1 5.3 5.4 5.4 5.7 6.0 6.1 6.2 6.2 6.3 6.4 6.3 6.3 6.2 6.3 6.1 6.2 5.9 5.7 5.6 5.5 5.8 6.0 6.2 6.5 6.2 6.4 6.2 5.8 6.5 6.6 6.3 6.5 6.1 5.9 5.9 5.9 6.0 6.7 6.8 6.4
4.8 4.8 4.9 5.0 5.0 5.2 5.2 5.2 5.2 5.4 5.7 6.1 6.3 6.4 6.4 6.3 6.2 6.1 6.3 6.4 6.3 5.9 5.8 5.7 5.7 5.8 5.9 6.6 6.7 6.6 6.6 6.3 5.9 6.3 6.2 5.9 6.0 6.1 5.9 5.8 5.9 6.6 6.5 6.4 6.8
5.1 5.1 5.2 5.3 5.3 5.3 5.3 5.4 5.4 5.6 5.6 5.7 6.1 6.4 6.4 6.4 6.1 6.4 6.1 6.2 6.3 6.1 6.0 6.1 6.2 6.4 6.1 7.0 6.8 6.7 6.5 6.4 6.1 6.3 6.0 5.7 5.8 5.8 5.9 6.2 6.4 6.7 7.1 6.2 6.6
5.2 5.2 5.3 5.4 5.4 5.3 5.3 5.4 5.4 5.5 5.6 5.8 6.1 6.3 6.4 6.3 6.1 6.4 6.1 6.1 6.3 6.0 5.9 6.0 6.0 6.1 6.3 7.0 6.9 7.1 6.5 6.2 6.2 6.3 5.9 5.7 5.7 5.8 6.3 6.5 6.9 6.7 7.3 6.6 6.6
5.1 5.0 5.0 5.2 5.2 5.2 5.2 5.3 5.4 5.3 5.3 5.5 5.9 6.4 6.5 6.4 6.4 6.4 6.3 6.0 6.3 6.0 5.9 5.7 5.7 5.5 5.7 6.1 6.8 6.8 6.6 6.1 6.1 6.5 6.2 6.1 5.7 6.4 6.4 6.5 6.8 6.5 6.7 6.6 6.6
5.3 5.2 5.1 5.2 5.3 5.3 5.3 5.3 5.3 5.3 5.2 5.2 5.5 6.1 6.3 6.3 6.2 6.5 6.2 6.0 5.8 6.0 5.4 5.4 5.2 5.2 5.3 5.4 6.4 6.3 5.9 5.8 6.4 6.2 6.6 6.3 6.0 6.4 6.5 6.8 7.0 6.5 6.7 6.2 6.5
5.3 5.4 5.2 5.2 5.3 5.3 5.3 5.3 5.4 5.4 5.1 5.1 5.1 5.5 5.5 5.5 5.7 6.0 6.2 5.9 5.5 5.9 5.5 4.8 4.7 5.0 5.1 5.0 5.7 5.6 5.7 5.6 6.2 6.4 6.3 6.7 6.7 6.5 6.6 6.8 6.9 6.5 6.8 6.6 6.2
5.3 5.3 5.0 5.2 5.2 5.3 5.3 5.3 5.4 5.4 4.9 5.1 4.9 5.1 4.9 5.3 5.2 5.2 5.8 5.9 5.5 5.5 5.3 4.8 4.4 4.6 4.8 4.6 4.7 5.4 5.3 5.8 6.5 6.5 6.4 7.1 6.8 6.5 6.7 6.9 7.0 6.7 7.0 7.1 6.9
5.5 5.5 5.0 5.1 5.0 5.1 5.2 5.3 5.5 5.5 4.5 4.5 4.4 4.5 4.5 4.7 4.7 4.5 4.9 5.5 5.5 5.1 5.1 5.2 4.8 5.2 6.3 5.6 5.7 5.9 5.7 6.2 7.2 7.0 6.9 7.5 7.4 6.9 6.6 6.9 7.1 7.2 7.2 7.5 7.5
5.2 5.4 5.1 5.1 4.9 5.1 5.0 5.4 5.6 4.8 5.4 4.9 4.5 4.2 4.3 4.6 4.7 4.6 4.3 4.9 4.9 5.1 5.1 4.9 4.9 6.1 6.0 5.6 5.5 5.5 5.6 6.0 6.9 7.3 6.7 7.3 7.5 7.4 6.9 7.4 7.7 7.7 7.5 7.7 7.4
5.1 5.4 5.3 5.0 4.8 5.0 4.9 5.2 5.6 4.9 4.8 4.8 4.3 4.3 4.6 4.8 4.7 4.5 4.6 4.5 4.5 4.7 4.7 4.8 5.2 5.3 5.6 5.5 5.2 5.5 5.5 6.2 6.8 7.2 6.7 7.3 7.2 7.2 6.9 6.8 6.8 7.0 6.9 7.2 7.8
5.1 5.3 5.5 5.4 5.4 5.5 5.4 5.5 5.7 5.4 5.0 5.0 4.7 5.1 5.5 5.4 5.2 5.0 5.0 4.9 4.9 4.8 4.7 4.6 5.2 5.0 5.7 5.9 5.6 5.4 6.0 6.4 6.9 7.1 7.1 7.3 6.2 7.2 7.3 6.9 6.7 6.9 7.2 7.2 7.6
5.1 5.4 5.6 5.8 5.7 5.9 6.1 5.8 6.0 6.3 5.1 5.7 5.6 6.0 6.3 6.1 5.6 5.4 5.7 5.5 5.3 5.2 5.2 4.5 5.0 4.7 5.2 5.6 6.2 6.4 6.3 6.4 6.7 6.7 6.8 7.2 6.8 7.2 7.6 7.2 7.0 7.1 7.2 7.7 7.7
4.8 5.6 6.1 6.1 6.2 6.1 6.3 6.4 6.1 6.2 5.7 6.2 5.9 6.0 6.3 6.5 6.9 7.2 6.8 6.4 5.9 5.9 5.7 5.2 5.2 5.1 5.5 6.0 5.8 6.4 6.3 6.4 6.7 7.0 6.6 6.3 6.7 6.6 6.7 7.6 7.7 7.8 7.7 7.8 8.0
5.0 6.2 6.5 6.7 6.4 6.4 6.6 6.4 6.3 6.3 6.0 5.5 5.5 5.6 5.9 6.0 6.4 6.8 6.9 7.4 6.8 6.3 6.4 5.9 5.7 5.5 5.9 5.9 5.9 5.9 6.2 6.0 5.9 6.0 4.9 6.5 6.8 5.4 6.6 7.4 7.7 8.0 8.4 8.4 8.6
5.9 6.5 6.6 6.7 6.3 6.3 6.3 6.3 6.1 5.4 5.5 5.3 5.2 5.4 5.7 5.7 5.9 6.3 6.5 6.2 6.7 6.4 6.1 5.6 6.2 6.2 5.9 5.8 5.9 5.8 6.0 5.8 4.5 4.6 5.3 6.3 6.0 5.4 6.5 7.1 7.5 8.1 8.3 8.6 8.7
6.7 6.7 6.6 6.4 6.4 6.2 6.0 6.0 5.6 5.3 5.4 5.4 5.5 5.7 5.5 5.5 5.8 5.8 6.0 6.2 6.3 6.1 6.1 5.7 5.9 6.5 6.7 6.6 6.4 6.3 5.9 6.1 6.8 6.1 5.5 6.4 6.5 6.3 6.6 7.2 7.8 8.1 8.3 8.4 8.3
7.0 6.9 6.3 6.4 6.3 6.1 5.5 5.5 5.4 5.4 5.5 5.5 5.6 5.8 5.6 5.7 5.7 5.7 5.9 5.8 6.2 5.9 5.6 5.5 5.3 6.7 6.8 7.0 7.1 6.5 6.4 6.6 6.8 5.4 4.6 5.6 6.4 6.4 6.4 7.0 7.8 8.3 8.1 8.3 8.6
7.3 6.7 6.3 6.1 5.9 5.7 5.2 5.1 5.4 5.5 5.6 5.7 5.8 5.8 5.7 5.8 5.9 5.9 6.0 5.9 6.1 5.9 5.7 5.5 5.0 6.3 7.0 7.1 7.3 6.9 6.7 6.6 6.8 6.5 5.0 4.9 6.1 6.8 6.7 7.4 7.8 8.3 8.5 8.6 8.5
6.7 6.4 6.2 5.9 5.6 5.5 5.1 5.0 5.0 5.4 5.7 5.5 5.6 5.6 5.7 6.0 6.0 5.8 6.0 6.0 6.1 6.1 5.8 5.5 4.7 5.1 6.6 7.3 7.4 7.5 7.0 6.5 7.0 5.9 6.0 6.3 6.3 7.0 7.3 7.7 8.3 8.6 8.5 8.4 8.6
6.4 6.0 5.5 5.4 5.6 5.7 5.3 4.9 4.9 4.9 5.5 5.7 6.0 6.1 5.9 6.2 6.4 6.4 6.2 6.2 6.1 6.1 5.9 5.1 4.9 4.9 6.8 7.8 7.4 6.9 6.9 6.7 6.2 6.5 6.5 6.4 5.8 7.1 7.2 7.5 8.0 8.5 8.8 8.8 8.6
5.7 5.3 5.0 4.9 4.5 4.7 5.1 5.0 5.0 4.7 5.1 5.8 6.1 6.3 6.6 6.7 6.7 6.7 6.6 6.6 6.8 6.8 6.4 5.5 5.4 5.5 5.5 6.5 6.2 6.3 7.1 6.6 5.2 5.7 6.4 6.3 6.4 6.5 7.5 7.4 8.1 8.5 8.7 8.7 8.6
5.2 5.0 4.8 4.4 4.0 3.7 4.0 4.3 4.7 5.2 5.5 5.8 6.2 6.4 6.5 6.7 6.9 7.2 7.5 7.4 7.2 7.2 7.0 6.2 5.4 5.7 6.0 6.3 5.9 5.7 6.1 6.3 5.2 5.4 4.6 6.4 6.5 6.5 7.5 7.8 8.1 8.6 8.5 8.7 8.8
5.0 4.8 4.6 4.1 3.6 3.9 3.7 4.1 4.5 4.9 5.7 6.5 6.6 6.6 6.9 7.2 7.0 6.9 6.9 7.4 7.3 7.1 7.0 6.7 5.7 5.5 5.5 6.4 6.1 6.0 5.7 6.3 5.9 5.9 5.2 6.6 6.9 6.7 7.5 7.9 8.0 8.3 8.3 8.3 8.6
5.5 5.3 5.2 4.1 4.0 4.0 4.0 4.5 4.7 5.4 6.2 6.4 6.7 6.9 7.4 7.4 7.1 7.3 7.4 7.7 7.4 7.4 7.2 6.7 6.1 5.3 5.2 6.1 6.7 6.1 6.2 6.1 5.4 5.3 6.4 7.0 7.0 7.0 7.5 8.1 8.4 8.1 8.5 8.5 8.4
Wind_Speed
23 23 23 23 23 22 22 23 23 22 18 18 17 13 11 11 10 3 7 13 12 14 9 12 5 6 7 4 3 2 1 2 3 6 3 3 4 3 9 12 3 6 5 17 20
24 25 25 24 24 23 22 21 22 23 22 17 16 13 10 7 3 9 11 18 21 17 11 18 9 9 3 5 3 3 2 6 4 3 4 6 5 7 6 8 5 10 18 21 20
25 26 26 26 26 25 24 23 22 21 21 19 14 11 8 3 3 6 10 24 23 16 8 9 13 7 4 4 5 6 5 1 3 7 9 5 4 6 10 3 6 21 24 23 20
27 28 28 29 29 28 27 25 22 20 18 16 11 9 3 2 1 3 18 20 23 13 12 10 10 8 5 6 7 4 9 6 5 5 3 3 7 5 10 5 16 22 28 26 22
29 30 31 31 32 32 30 26 23 19 14 11 7 4 1 1 7 13 3 16 13 10 14 8 15 6 6 6 6 11 4 3 10 7 4 4 7 4 8 8 19 23 23 22 18
30 31 32 32 31 32 31 26 22 20 15 7 8 6 2 2 2 14 5 8 8 8 8 8 11 6 5 5 7 5 12 9 7 5 5 6 5 7 5 16 21 24 23 19 18
30 31 33 33 33 34 33 27 22 19 6 10 9 3 3 8 6 10 3 5 2 6 8 3 6 9 5 2 7 6 4 5 5 4 5 6 3 6 16 17 23 22 19 17 16
30 30 33 32 32 33 32 26 22 7 5 11 9 1 4 5 10 8 2 4 4 4 4 6 4 2 2 3 4 6 3 2 2 6 5 8 5 3 17 19 21 21 19 17 18
31 31 35 34 33 33 30 23 6 8 8 8 2 1 4 3 4 3 4 3 7 4 5 1 2 2 3 2 4 4 4 6 4 6 3 5 3 10 14 16 20 20 19 17 16
34 34 35 35 34 32 29 3 12 8 4 5 2 2 2 7 6 7 2 6 5 9 1 2 3 2 2 4 7 6 4 5 5 5 8 6 0 13 14 16 21 21 19 19 19
33 35 36 37 35 31 10 2 6 4 8 3 7 3 7 9 5 4 1 3 5 6 7 4 4 18 22 12 2 4 5 6 6 6 6 11 6 15 16 13 16 19 20 21 21
35 34 34 34 32 25 2 7 7 5 7 4 8 7 6 3 4 12 5 5 4 4 7 3 14 11 5 5 6 6 2 4 4 3 8 7 13 14 20 23 23 21 21 20 17
33 32 33 32 28 4 2 6 3 3 1 7 4 4 7 0 1 7 6 4 4 5 8 7 6 11 9 6 10 11 7 4 2 3 6 2 7 9 14 9 14 15 16 18 22
35 35 35 35 3 5 2 3 8 4 4 5 5 6 8 4 3 3 7 2 3 10 7 9 8 11 13 14 9 11 13 14 5 1 4 6 4 7 11 18 19 17 18 19 20
38 39 34 9 2 2 5 11 2 3 2 2 4 3 9 6 5 7 8 7 4 4 6 6 8 10 12 20 14 13 7 10 8 4 3 4 0 7 12 12 18 20 20 20 21
38 39 30 2 0 6 12 7 3 5 5 2 2 5 7 6 6 6 7 6 2 5 2 8 4 7 16 9 14 3 1 4 3 4 10 13 9 6 7 13 16 19 21 21 21
37 38 15 2 4 15 7 3 4 3 3 3 2 4 3 5 6 7 4 8 5 6 7 6 5 5 4 7 8 12 9 2 3 4 15 9 9 12 6 11 17 23 23 23 22
39 28 3 3 15 9 3 5 3 1 2 2 3 1 4 5 2 7 2 3 7 4 2 4 4 6 1 10 8 11 12 6 8 6 14 6 8 6 19 8 17 16 22 19 18
28 5 2 4 15 1 5 4 3 1 4 4 4 3 2 3 2 4 2 2 1 4 3 4 6 5 5 1 3 6 16 11 4 3 1 9 4 8 5 11 11 17 13 18 21
5 4 4 19 10 4 4 3 4 1 4 3 3 1 2 2 1 2 2 2 4 2 1 2 5 3 6 4 8 8 6 7 4 7 5 4 6 8 9 9 9 8 13 15 19
4 4 4 23 3 6 3 3 3 2 4 1 1 1 2 3 2 3 2 3 3 2 2 2 4 7 5 6 10 7 8 5 7 7 7 2 6 7 11 14 14 11 14 16 18
3 3 6 7 4 3 2 5 5 3 4 3 2 3 4 5 3 3 5 2 5 2 2 2 2 6 9 7 3 3 4 4 8 12 7 3 7 5 10 9 13 15 14 15 18
3 3 5 5 4 3 5 4 3 3 3 4 3 4 1 4 2 4 3 3 4 3 3 2 2 5 7 1 5 3 2 6 5 3 15 14 7 6 6 6 10 9 8 11 16
2 4 4 4 1 2 5 4 5 7 1 2 3 4 4 3 2 3 3 5 5 3 6 1 3 7 6 2 4 5 8 6 4 3 5 15 10 7 9 8 9 9 7 7 8
3 0 2 4 3 3 2 3 4 5 4 4 3 3 4 1 5 3 3 2 2 1 3 2 5 5 15 16 10 11 15 13 5 11 5 4 11 9 12 11 6 5 6 9 8
2 2 3 2 3 4 1 2 6 4 3 4 4 6 7 4 6 7 5 3 5 2 3 1 4 7 14 14 15 14 16 14 15 17 13 16 10 4 5 5 6 4 6 5 11
1 1 1 3 2 2 2 3 6 8 7 8 9 7 9 12 9 10 12 7 5 8 8 6 3 4 5 4 5 8 15 8 7 13 5 6 2 5 4 9 7 8 8 10 10
Wind_Direction
350 346 343 340 336 332 327 323 320 317 314 313 315 314 313 312 307 202 230 219 188 213 155 144 158 152 171 184 204 137 73 247 232 183 230 221 163 126 103 138 157 155 129 143 144
349 346 342 339 336 332 327 322 316 313 312 311 310 309 311 311 243 237 246 224 209 177 149 158 164 155 169 186 201 164 187 225 216 178 189 136 127 136 127 131 65 92 116 140 145
347 344 341 338 335 331 327 323 317 312 307 308 307 301 312 307 290 238 284 214 204 188 151 147 141 146 164 162 218 171 217 232 248 220 150 138 132 161 136 196 168 149 148 152 154
347 343 340 337 334 331 327 325 322 312 304 299 298 287 321 189 313 25 335 184 188 175 140 140 154 149 165 192 191 222 232 253 302 206 156 180 140 166 170 202 153 161 159 156 158
346 341 336 336 332 329 325 329 328 317 306 287 269 257 215 46 254 332 38 162 172 156 174 154 163 141 187 193 151 229 244 225 247 285 292 153 198 191 190 112 141 149 160 164 159
343 339 335 333 332 328 325 331 329 320 310 247 207 150 186 242 225 12 67 141 174 167 170 153 179 173 167 200 192 219 238 272 287 261 243 201 208 146 117 133 142 154 165 170 168
341 337 333 332 332 327 323 331 326 323 342 158 167 163 57 240 331 338 192 173 301 203 163 173 148 170 143 90 233 279 336 328 233 206 239 159 212 207 144 146 150 157 165 171 176
339 336 331 331 331 326 319 329 321 311 126 143 173 324 251 249 287 303 208 189 160 223 6 83 45 55 208 302 3 175 100 336 278 178 210 147 244 130 154 150 158 163 170 180 186
338 338 333 334 333 327 323 326 340 140 142 154 132 68 353 274 317 306 221 182 129 126 328 174 85 178 316 72 5 357 188 202 303 196 142 161 244 156 161 156 164 171 175 185 190
340 339 335 335 333 330 332 354 121 108 146 198 220 318 327 326 307 310 290 152 133 135 353 134 108 159 35 150 205 189 175 209 193 219 185 193 201 155 173 170 173 176 182 190 195
338 336 336 338 334 329 349 3 15 358 48 278 288 242 279 302 307 315 84 99 94 115 164 194 167 208 207 206 311 175 187 187 220 210 152 208 180 182 182 183 184 181 186 197 202
337 336 333 330 325 317 317 83 138 219 310 284 260 252 270 270 317 4 2 141 142 164 136 130 227 227 187 187 211 256 230 225 282 234 174 213 220 186 184 194 188 186 188 196 199
332 333 333 330 323 12 44 128 111 126 67 303 269 294 295 117 344 336 27 322 170 181 186 181 232 166 187 176 199 230 216 227 187 352 221 164 258 169 203 196 202 207 203 194 190
335 339 342 331 51 317 75 153 285 200 58 285 330 357 340 326 74 3 345 249 235 198 173 230 232 192 187 211 178 224 219 242 267 30 221 170 256 228 182 201 200 202 202 199 198
338 337 345 5 203 31 281 337 347 62 350 41 350 306 336 55 316 332 354 4 314 262 152 213 181 181 211 217 182 232 163 209 233 216 327 261 186 254 178 204 207 205 207 203 200
334 330 339 344 97 244 309 321 76 52 234 12 58 351 23 8 7 310 8 14 8 307 254 214 209 196 222 202 202 170 63 137 119 154 243 225 209 262 184 211 208 210 211 207 203
331 324 325 331 310 314 320 53 49 150 347 12 324 17 83 351 352 15 30 36 40 19 8 336 224 165 228 202 208 181 148 265 199 206 233 214 214 235 208 216 204 204 209 210 206
331 320 304 228 288 310 44 54 190 63 24 360 347 4 92 15 1 353 40 34 32 76 23 341 219 161 63 190 196 200 181 172 193 212 229 181 216 239 222 219 213 211 210 207 208
333 338 349 304 323 141 66 56 178 82 278 300 330 84 46 358 33 35 25 134 31 23 82 11 270 325 245 1 199 193 209 180 105 203 163 204 255 307 193 216 215 221 199 199 203
332 340 298 339 345 55 80 213 156 57 317 352 195 137 157 310 46 342 218 14 134 73 148 142 295 259 304 294 209 206 176 184 203 205 220 244 205 208 205 220 215 206 202 202 201
30 21 297 342 49 47 102 287 306 330 357 326 241 238 173 168 191 235 234 142 96 320 83 114 170 292 340 209 206 190 216 236 182 202 207 183 238 209 202 204 215 209 200 196 197
3 29 318 351 49 40 38 306 291 332 358 321 308 211 183 167 211 242 219 120 122 175 125 175 267 264 251 264 2 340 240 254 209 217 225 134 250 233 203 218 220 205 203 203 200
14 288 326 36 61 353 315 300 271 321 319 2 321 34 27 182 215 228 200 124 130 153 182 160 206 295 299 93 65 83 50 24 321 277 209 212 237 258 189 230 244 226 229 211 209
37 9 347 38 45 58 345 303 310 324 43 10 283 64 28 2 245 255 222 192 172 177 201 97 255 229 245 35 17 312 312 6 16 310 271 221 210 197 253 229 255 248 243 206 212
30 31 179 336 346 331 307 311 303 335 7 307 327 131 114 287 324 278 273 221 91 284 81 124 253 265 268 275 277 267 279 293 251 243 217 225 205 221 220 228 214 264 320 302 238
75 37 3 275 275 304 321 289 317 310 333 290 249 309 331 245 224 238 209 196 196 132 159 286 271 307 289 250 242 264 266 261 245 249 244 261 266 336 23 37 27 3 318 261 254
225 191 195 293 292 304 311 297 290 295 248 254 299 301 280 244 230 239 247 233 210 171 182 181 246 280 263 291 4 289 219 200 97 22 285 193 262 332 40 63 25 354 347 321 300